Boscobel, WI

1:02 AM CDT on September 23, 2017 (GMT -0500)
Boscobel

Weather History for KOVS - January, 2014

Change the Weather History Date:

Friday, January 24, 2014

  Actual Average (KPDC) Record (KPDC)
Temperature  
Mean Temperature 10 °F -  
Max Temperature 36 °F 30 °F 55 °F (1981)
Min Temperature -14 °F 12 °F -17 °F (1952)
Degree Days  
Heating Degree Days 54    
Moisture  
Dew Point 14 °F    
Average Humidity 71    
Maximum Humidity 93    
Minimum Humidity 51    
Precipitation  
Precipitation 0.02 in - - ()
Sea Level Pressure  
Sea Level Pressure 29.73 in    
Wind  
Wind Speed 10 mph (SW)    
Max Wind Speed 17 mph    
Max Gust Speed 30 mph    
Visibility 8 miles    
Events Snow    
Averages and records for this station are not official NWS values.
T = Trace of Precipitation, MM = Missing Value Source: NWS Daily Summary

Daily Weather History Graph

Daily Weather History Graph

Search for Another Location

Airport or City:

Trip Planner

Search our weather history database for the weather conditions in past years. The results will help you decide how hot, cold, wet, or windy it might be!

Date:

Astronomy

Jan. 24, 2014 Rise Set
Actual Time 7:25 AM CST 5:04 PM CST
Civil Twilight 6:54 AM CST 5:35 PM CST
Nautical Twilight 6:20 AM CST 6:09 PM CST
Astronomical Twilight 5:46 AM CST 6:43 PM CST
Moon 12:50 AM CST (1/24) 11:24 AM CST (1/24)
Length of Visible Light 10h 40m
Length of Day
9h 38m
Last Quarter, 44% of the Moon is Illuminated
Jan 24
Last Quarter
Jan 30
New
Feb 6
First Quarter
Feb 14
Full
Feb 22
Last Quarter

Hourly Weather History & Observations

Time (CST) Temp. Windchill Dew Point Humidity Pressure Visibility Wind Dir Wind Speed Gust Speed Precip Events Conditions
12:53 AM -14.1 °F - -20.0 °F 75% 30.49 in 10.0 mi Calm Calm - N/A   Clear
1:53 AM -11.9 °F -25.7 °F -18.0 °F 74% 30.43 in 10.0 mi SW 5.8 mph - N/A   Clear
2:53 AM -8.0 °F -22.5 °F -13.0 °F 79% 30.38 in 10.0 mi SW 6.9 mph - N/A   Clear
3:53 AM -2.0 °F -16.6 °F -9.9 °F 69% 30.30 in 10.0 mi SW 8.1 mph - N/A   Clear
4:53 AM 3.9 °F -12.2 °F -8.0 °F 58% 30.22 in 10.0 mi SSW 11.5 mph - 0.00 in   Clear
5:53 AM 8.1 °F -8.4 °F -6.0 °F 53% 30.14 in 10.0 mi SSW 13.8 mph - 0.00 in   Clear
6:53 AM 10.9 °F -6.5 °F -4.0 °F 51% 30.07 in 10.0 mi SW 17.3 mph 27.6 mph N/A   Mostly Cloudy
7:53 AM 12.0 °F -5.1 °F -2.0 °F 53% 30.03 in 10.0 mi SW 17.3 mph 29.9 mph N/A   Overcast
8:53 AM 14.0 °F -2.5 °F -0.0 °F 54% 30.00 in 10.0 mi SW 17.3 mph 28.8 mph N/A   Overcast
9:53 AM 15.1 °F -1.1 °F 1.0 °F 54% 29.94 in 10.0 mi SW 17.3 mph 26.5 mph N/A   Overcast
10:53 AM 17.1 °F 2.0 °F 3.9 °F 56% 29.91 in 10.0 mi SSW 16.1 mph 24.2 mph N/A   Overcast
11:53 AM 19.9 °F 5.7 °F 6.1 °F 55% 29.85 in 10.0 mi SW 16.1 mph 25.3 mph N/A   Overcast
12:53 PM 23.0 °F 10.1 °F 8.1 °F 53% 29.79 in 10.0 mi WSW 15.0 mph - N/A   Overcast
1:53 PM 24.1 °F 12.0 °F 10.0 °F 55% 29.73 in 10.0 mi SW 13.8 mph - N/A   Overcast
2:53 PM 26.1 °F 13.1 °F 12.0 °F 55% 29.69 in 10.0 mi SW 17.3 mph 27.6 mph 0.00 in   Overcast
3:53 PM 26.1 °F 14.5 °F 12.9 °F 58% 29.67 in 10.0 mi SW 13.8 mph 23.0 mph 0.00 in   Overcast
4:14 PM 27.0 °F 16.1 °F 14.0 °F 58% 29.61 in 10.0 mi SW 12.7 mph 21.9 mph 0.00 in   Overcast
4:53 PM 27.0 °F 18.0 °F 15.1 °F 61% 29.64 in 10.0 mi SW 9.2 mph - 0.00 in   Overcast
5:53 PM 28.0 °F 18.1 °F 16.0 °F 61% 29.60 in 10.0 mi SW 11.5 mph - 0.00 in   Overcast
6:53 PM 30.0 °F 19.5 °F 18.0 °F 61% 29.56 in 10.0 mi SW 13.8 mph - N/A   Overcast
7:15 PM 30.0 °F 19.1 °F 21.9 °F 72% 29.52 in 2.5 mi SW 15.0 mph 23.0 mph 0.00 in Snow Light Snow
7:27 PM 28.9 °F 19.2 °F 24.1 °F 82% 29.51 in 1.5 mi SW 11.5 mph 21.9 mph 0.00 in Snow Light Snow
7:49 PM 28.4 °F 18.0 °F 26.6 °F 93% 29.50 in 1.0 mi SW 12.7 mph - 0.00 in Snow Light Snow
7:53 PM 28.9 °F 18.2 °F 26.1 °F 89% 29.54 in 1.0 mi SW 13.8 mph - 0.00 in Snow Light Snow
8:14 PM 30.0 °F 20.0 °F 26.1 °F 85% 29.50 in 1.2 mi SW 12.7 mph - 0.00 in Snow Light Snow
8:22 PM 30.0 °F 19.5 °F 26.1 °F 85% 29.49 in 1.0 mi SW 13.8 mph - 0.01 in Snow Light Snow
8:53 PM 30.0 °F 20.0 °F 27.0 °F 88% 29.50 in 1.0 mi SW 12.7 mph - 0.02 in Snow Light Snow
9:04 PM 30.0 °F 20.5 °F 27.0 °F 88% 29.47 in 1.2 mi SW 11.5 mph - 0.00 in Snow Light Snow
9:26 PM 30.9 °F 21.2 °F 28.0 °F 89% 29.46 in 3.0 mi SW 12.7 mph - 0.00 in Snow Light Snow
9:53 PM 32.0 °F 23.6 °F 28.0 °F 85% 29.48 in 5.0 mi SW 10.4 mph - 0.00 in Snow Light Snow
10:26 PM 32.0 °F 24.8 °F 30.0 °F 92% 29.43 in 2.5 mi SW 8.1 mph - 0.00 in Snow Light Snow
10:35 PM 33.1 °F 26.1 °F 30.0 °F 89% 29.43 in 7.0 mi SW 8.1 mph - 0.00 in   Overcast
10:42 PM 33.1 °F 26.9 °F 30.0 °F 89% 29.43 in 9.0 mi SW 6.9 mph - 0.00 in   Overcast
10:53 PM 34.0 °F 26.6 °F 30.0 °F 85% 29.46 in 10.0 mi WSW 9.2 mph - 0.00 in   Overcast
11:15 PM 35.1 °F 30.1 °F 28.9 °F 78% 29.43 in 10.0 mi Variable 5.8 mph - N/A   Mostly Cloudy
11:44 PM 35.1 °F 28.6 °F 28.0 °F 76% 29.44 in 10.0 mi West 8.1 mph - N/A   Overcast
11:53 PM 36.0 °F 29.0 °F 28.0 °F 73% 29.46 in 10.0 mi WNW 9.2 mph - N/A   Overcast